Weather reports worldwide

Advertisment
Cozzo Spadaro, Italy (16480): temperature & dewpoint: 21.02.2020 16:00:00 - 27.02.2020 16:00:00 (CET)Cozzo Spadaro, Italy (16480): wind speed: 21.02.2020 16:00:00 - 27.02.2020 16:00:00 (CET)Cozzo Spadaro, Italy (16480): wind direction: 21.02.2020 16:00:00 - 27.02.2020 16:00:00 (CET)Cozzo Spadaro, Italy (16480): reduced air pressure: 21.02.2020 16:00:00 - 27.02.2020 16:00:00 (CET)Cozzo Spadaro, Italy (16480): visibility: 21.02.2020 16:00:00 - 27.02.2020 16:00:00 (CET)Cozzo Spadaro, Italy (16480): sunshine duration: 21.02.2020 16:00:00 - 27.02.2020 16:00:00 (CET)
Date & Time tt [°C] td [°C] ff [km/h] ff [kn] dd ppp [hPa] vv [km] sd [min]
27.02.2020 16:00:00 - - - - - - - -
27.02.2020 15:00:00 15,0 6,5 21 11 WNW 1015,1 25 60
27.02.2020 14:00:00 16,0 5,0 21 11 W 1015,1 25 60
27.02.2020 13:00:00 17,4 3,0 16 9 WNW 1015,1 25 60
27.02.2020 12:00:00 16,4 2,4 13 7 NNW 1015,5 25 60
27.02.2020 11:00:00 15,4 3,2 13 7 NW 1015,1 25 60
27.02.2020 10:00:00 14,4 3,8 24 13 NW 1015,0 25 60
27.02.2020 09:00:00 14,0 5,6 11 6 NW 1014,8 25 60
27.02.2020 08:00:00 11,0 6,7 15 8 NW 1013,3 25 42
27.02.2020 07:00:00 10,0 6,4 16 9 NW 1013,2 25 0
27.02.2020 06:00:00 - - - - - - - -
27.02.2020 05:00:00 - - - - - - - -
27.02.2020 04:00:00 - - - - - - - -
27.02.2020 03:00:00 - - - - - - - -
27.02.2020 02:00:00 - - - - - - - -
27.02.2020 01:00:00 - - - - - - - -
27.02.2020 00:00:00 - - - - - - - -
26.02.2020 23:00:00 - - - - - - - -
26.02.2020 22:00:00 - - - - - - - -
26.02.2020 21:00:00 - - - - - - - -
26.02.2020 20:00:00 - - - - - - - -
26.02.2020 19:00:00 13,8 10,6 8 4 NW 1009,5 15 0
26.02.2020 18:00:00 14,4 11,0 16 9 WNW 1009,1 15 0
26.02.2020 17:00:00 14,8 12,0 22 12 W 1008,7 20 0
26.02.2020 16:00:00 15,4 12,0 21 11 WNW 1008,9 20 18
26.02.2020 15:00:00 16,4 12,0 22 12 W 1008,9 20 60
26.02.2020 14:00:00 16,8 11,9 22 12 W 1009,1 20 60
26.02.2020 13:00:00 16,2 11,8 24 13 W 1009,9 20 60
26.02.2020 12:00:00 16,6 12,5 22 12 W 1010,3 20 60
26.02.2020 11:00:00 15,4 12,0 22 12 W 1010,2 25 60
26.02.2020 10:00:00 14,0 10,6 18 10 W 1010,2 25 18
26.02.2020 09:00:00 13,6 10,8 18 10 W 1010,2 25 0
26.02.2020 08:00:00 12,8 10,4 16 9 W 1009,9 25 0
26.02.2020 07:00:00 12,2 9,9 16 9 W 1009,8 20 0
26.02.2020 06:00:00 - - - - - - - -
26.02.2020 05:00:00 - - - - - - - -
26.02.2020 04:00:00 - - - - - - - -
26.02.2020 03:00:00 - - - - - - - -
26.02.2020 02:00:00 - - - - - - - -
26.02.2020 01:00:00 - - - - - - - -
26.02.2020 00:00:00 - - - - - - - -
25.02.2020 23:00:00 - - - - - - - -
25.02.2020 22:00:00 - - - - - - - -
25.02.2020 21:00:00 - - - - - - - -
25.02.2020 20:00:00 - - - - - - - -
25.02.2020 19:00:00 13,2 11,6 18 10 W 1013,2 15 0
25.02.2020 18:00:00 13,8 12,0 21 11 W 1013,2 18 6
25.02.2020 17:00:00 14,6 12,3 22 12 W 1013,3 25 60
25.02.2020 16:00:00 15,0 12,3 22 12 W 1014,0 20 60
25.02.2020 15:00:00 15,6 12,4 21 11 W 1014,1 20 60
25.02.2020 14:00:00 15,2 11,8 24 13 W 1014,7 20 60
25.02.2020 13:00:00 15,6 12,0 28 15 W 1017,5 20 60
25.02.2020 12:00:00 15,4 12,2 21 11 W 1016,9 20 60
25.02.2020 11:00:00 15,8 12,9 16 9 W 1017,7 20 60
25.02.2020 10:00:00 15,0 12,7 13 7 W 1018,1 18 60
25.02.2020 09:00:00 14,4 12,6 5 3 W 1018,3 15 60
25.02.2020 08:00:00 12,4 11,3 5 3 W 1018,3 15 24
25.02.2020 07:00:00 11,0 10,1 5 3 WNW 1018,3 10 0
25.02.2020 06:00:00 - - - - - - - -
25.02.2020 05:00:00 - - - - - - - -
25.02.2020 04:00:00 - - - - - - - -
25.02.2020 03:00:00 - - - - - - - -
25.02.2020 02:00:00 - - - - - - - -
25.02.2020 01:00:00 - - - - - - - -
25.02.2020 00:00:00 - - - - - - - -
24.02.2020 23:00:00 - - - - - - - -
24.02.2020 22:00:00 - - - - - - - -
24.02.2020 21:00:00 - - - - - - - -
24.02.2020 20:00:00 - - - - - - - -
24.02.2020 19:00:00 13,4 12,0 2 1 E 1019,0 18 0
24.02.2020 18:00:00 14,0 12,2 2 1 E 1019,0 20 6
24.02.2020 17:00:00 15,0 12,9 8 4 E 1019,0 20 48
24.02.2020 16:00:00 16,6 13,3 11 6 E 1018,9 20 60
24.02.2020 15:00:00 17,8 13,1 15 8 WNW 1019,0 20 60
24.02.2020 14:00:00 16,4 11,1 5 3 ENE 1019,2 20 60
24.02.2020 13:00:00 16,8 10,9 9 5 ENE 1020,0 20 60
24.02.2020 12:00:00 18,0 10,1 4 2 NW 1020,6 25 60
24.02.2020 11:00:00 16,2 6,9 5 3 ENE 1021,5 30 60
24.02.2020 10:00:00 15,0 8,5 4 2 NE 1021,9 30 60
24.02.2020 09:00:00 13,6 4,7 4 2 NNW 1021,9 30 60
24.02.2020 08:00:00 12,0 6,7 8 4 WNW 1021,2 30 48
24.02.2020 07:00:00 9,4 3,2 11 6 NNW 1021,5 30 0
24.02.2020 06:00:00 - - - - - - - -
24.02.2020 05:00:00 - - - - - - - -
24.02.2020 04:00:00 - - - - - - - -
24.02.2020 03:00:00 - - - - - - - -
24.02.2020 02:00:00 - - - - - - - -
24.02.2020 01:00:00 - - - - - - - -
24.02.2020 00:00:00 - - - - - - - -
23.02.2020 23:00:00 - - - - - - - -
23.02.2020 22:00:00 - - - - - - - -
23.02.2020 21:00:00 - - - - - - - -
23.02.2020 20:00:00 - - - - - - - -
23.02.2020 19:00:00 12,6 9,4 9 5 N 1026,4 20 -
23.02.2020 18:00:00 13,8 9,7 11 6 NW 1026,2 25 0
23.02.2020 17:00:00 14,4 9,6 18 10 WNW 1026,3 25 30
23.02.2020 16:00:00 15,2 9,8 21 11 WNW 1027,1 25 60
23.02.2020 15:00:00 15,4 9,7 21 11 W 1027,5 25 60
23.02.2020 14:00:00 15,4 9,3 18 10 W 1028,3 25 60
23.02.2020 13:00:00 16,0 8,7 16 9 W 1029,2 25 60
23.02.2020 12:00:00 16,4 9,1 15 8 W 1030,2 25 60
23.02.2020 11:00:00 16,2 2,6 9 5 NW 1030,3 25 60
23.02.2020 10:00:00 15,2 6,0 13 7 NW 1030,2 20 60
23.02.2020 09:00:00 12,4 3,6 11 6 WNW 1030,1 25 60
23.02.2020 08:00:00 10,2 5,2 11 6 WNW 1030,1 20 42
23.02.2020 07:00:00 8,2 4,6 9 5 NW 1029,4 20 0
23.02.2020 06:00:00 - - - - - - - -
23.02.2020 05:00:00 - - - - - - - -
23.02.2020 04:00:00 - - - - - - - -
23.02.2020 03:00:00 - - - - - - - -
23.02.2020 02:00:00 - - - - - - - -
23.02.2020 01:00:00 - - - - - - - -
23.02.2020 00:00:00 - - - - - - - -
22.02.2020 23:00:00 - - - - - - - -
22.02.2020 22:00:00 - - - - - - - -
22.02.2020 21:00:00 - - - - - - - -
22.02.2020 20:00:00 - - - - - - - -
22.02.2020 19:00:00 12,4 6,7 18 10 E 1028,3 25 -
22.02.2020 18:00:00 12,6 7,9 18 10 E 1027,3 25 0
22.02.2020 17:00:00 12,8 8,5 18 10 E 1027,1 25 30
22.02.2020 16:00:00 14,8 8,7 16 9 E 1026,2 20 60
22.02.2020 15:00:00 15,6 9,0 16 9 E 1026,2 25 60
22.02.2020 14:00:00 16,0 9,2 15 8 E 1026,2 25 60
22.02.2020 13:00:00 16,0 9,9 15 8 ENE 1026,4 25 60
22.02.2020 12:00:00 15,0 9,6 18 10 NE 1026,4 25 60
22.02.2020 11:00:00 15,0 9,4 21 11 NE 1026,2 25 60
22.02.2020 10:00:00 14,2 8,4 26 14 NE 1026,2 25 60
22.02.2020 09:00:00 13,4 8,0 11 6 NNE 1025,7 25 60
22.02.2020 08:00:00 10,0 8,6 8 4 N 1025,3 25 30
22.02.2020 07:00:00 8,0 6,6 8 4 N 1024,8 25 0
22.02.2020 06:00:00 - - - - - - - -
22.02.2020 05:00:00 - - - - - - - -
22.02.2020 04:00:00 - - - - - - - -
22.02.2020 03:00:00 - - - - - - - -
22.02.2020 02:00:00 - - - - - - - -
22.02.2020 01:00:00 - - - - - - - -
22.02.2020 00:00:00 - - - - - - - -
21.02.2020 23:00:00 - - - - - - - -
21.02.2020 22:00:00 - - - - - - - -
21.02.2020 21:00:00 - - - - - - - -
21.02.2020 20:00:00 - - - - - - - -
21.02.2020 19:00:00 11,8 8,5 9 5 W 1022,2 20 -
21.02.2020 18:00:00 12,6 8,1 13 7 W 1022,2 25 0
21.02.2020 17:00:00 13,8 6,2 15 8 W 1022,2 25 54
21.02.2020 16:00:00 14,2 5,8 15 8 W 1022,6 25 60

tt = temperature
td = dewpoint
ff = wind speed
dd = wind direction
ppp = reduced air pressure
vv = visibility
sd = sunshine duration

Next stations